Regional Weather Roundup
Issued by NWS

Home | Current Version | Previous Version | Graphics & Text | Print | Product List | Glossary On
Versions: 1 2 3 4 5 6 7 8 9 10 11 12 13 14 15 16 17 18 19 20 21 22 23 24 25 26 27 28 29 30 31 32 33 34 35 36 37 38 39 40 41 42 43 44 45 46 47 48 49 50
000
ASUS43 KMPX 291010
RWRMN
WEATHER ROUNDUP FOR MINNESOTA
NATIONAL WEATHER SERVICE TWIN CITIES/CHANHASSEN MN
500 AM CDT THU SEP 29 2016


NOTE: "FAIR" INDICATES FEW OR NO CLOUDS BELOW 12,000 FEET WITH NO
SIGNIFICANT WEATHER AND/OR OBSTRUCTIONS TO VISIBILITY. N/A MEANS
CURRENT SKY AND/OR WEATHER CONDITIONS ARE NOT AVAILABLE.

MNZ060>063-068>070-291100-
   Twin Cities Metro

CITY           SKY/WX    TMP DP  RH WIND       PRES   REMARKS
ST PAUL        PTCLDY    48  46  93 NW6       30.44R
CRYSTAL        CLEAR     48  44  86 CALM      30.42R
BLAINE         CLEAR     46  46 100 CALM      30.43R
LAKEVILLE      CLEAR     46  46 100 CALM      30.41S
EDEN PRAIRIE   CLEAR     50  47  89 N7        30.41R
LAKEVILLE      CLEAR     46  46 100 CALM      30.41S
SOUTH ST PAUL  CLEAR     49  48  96 N5        30.42R
LAKE ELMO      FAIR      46  46 100 N5        30.43R
$$
MNZ001>005-007-008-013>017-022>024-027-028-291100-
   Northwest Minnesota

CITY           SKY/WX    TMP DP  RH WIND       PRES   REMARKS
BEMIDJI        CLOUDY    49  47  93 CALM      30.47R
HALLOCK        PTCLDY    45  43  93 E5        30.45S
ROSEAU         CLOUDY    50  45  81 CALM      30.48R
WARROAD        CLOUDY    50  46  87 CALM      30.49R
THIEF RVR FALL CLOUDY    49  47  93 E5        30.47S
CROOKSTON      CLOUDY    50  46  87 CALM      30.47R
FOSSTON        CLOUDY    43  41  93 E3        30.48R
DETROIT LAKES  CLEAR     45  45 100 CALM      30.47R
MOORHEAD       CLEAR     43  41  93 CALM      30.46R
PARK RAPIDS    CLOUDY    50  45  83 CALM      30.46R
MAHNOMEN       FAIR      42  41  97 E3        30.46S
$$
MNZ006-009>011-018-025>026-291100-
   North Central Minnesota

CITY           SKY/WX    TMP DP  RH WIND       PRES   REMARKS
BAUDETTE       CLOUDY    49  48  97 CALM      30.49R
FLAG ISLAND    CLOUDY    55  46  71 CALM      30.47R
INTL FALLS     CLOUDY    52  49  89 CALM      30.48R
WASKISH        CLOUDY    50  48  93 CALM      30.48R
BIG FORK       CLOUDY    52  48  87 CALM      30.47S
LONGVILLE      CLOUDY    50  48  93 CALM      30.45S
GRAND RAPIDS   CLOUDY    51  50  96 CALM      30.48R
ORR            CLOUDY    52  48  87 CALM      30.45S
COOK           CLOUDY    52  50  93 CALM      30.48R
WALKER         CLOUDY    48  47  95 CALM      30.46R
$$
MNZ012-019>021-037-291100-
   Northeast Minnesota

CITY           SKY/WX    TMP DP  RH WIND       PRES   REMARKS
DULUTH         CLOUDY    52  50  93 NE5       30.45R
ELY            CLOUDY    52  50  93 CALM      30.47R
HIBBING        CLOUDY    50  50 100 CALM      30.47R
EVELETH        CLOUDY    53  50  90 NE3       30.48R
DULUTH HARBOR  CLOUDY    54  52  94 CALM      30.47R
TWO HARBORS    CLOUDY    55  52  88 NE3       30.45R
SILVER BAY     CLOUDY    54  52  94 CALM      30.45R
GRAND MARAIS     N/A     55  47  74 VRB5      30.46R
G MARAIS ARPRT CLOUDY    46  43  87 N7        30.48R
$$
MNZ029>031-032-039>041-046>048-054>057-064-291100-
   West Central Minnesota

CITY           SKY/WX    TMP DP  RH WIND       PRES   REMARKS
FERGUS FALLS   CLEAR     46  43  87 E3        30.47S
MORRIS         MOCLDY    48  45  87 E6        30.44R
ALEXANDRIA     MOCLDY    50  46  86 SE5       30.46R
ELBOW LAKE     MOCLDY    49  46  87 SE5       30.45S
WADENA         CLOUDY    48  46  93 NE3       30.45S
GLENWOOD       CLEAR     48  46  93 NE3       30.45S
BENSON         CLEAR     39  37  93 CALM      30.44S
ORTONVILLE     CLOUDY    43  39  87 CALM      30.44R
MADISON        CLEAR     43  43 100 W3        30.44R
WILLMAR        FAIR      45  45 100 NE5       30.45S
$$
MNZ033>034-036-042>043-049>051-058-059-291100-
   Central Minnesota

CITY           SKY/WX    TMP DP  RH WIND       PRES   REMARKS
ST CLOUD       CLEAR     43  43 100 N3        30.44R
SAUK CENTRE    FAIR      49  46  89 CALM      30.45S
PAYNESVILLE    CLEAR     42  42 100 CALM      30.45R
AITKIN         CLOUDY    54  48  82 CALM      30.44S
PINE RIVER     CLOUDY    50  50 100 CALM      30.48R
BRAINERD       CLOUDY    52  51  97 CALM      30.45S
STAPLES        CLOUDY    50  48  93 CALM      30.45S
LONG PRAIRIE   CLOUDY    52  46  82 CALM      30.45S
LITTLE FALLS   CLOUDY    52  46  82 CALM      30.45S
LITCHFIELD     CLEAR     48  48 100 CALM      30.44R
BUFFALO        CLEAR     46  44  91 N3        30.44R
MAPLE LAKE     CLEAR     47  46  97 N3        30.44R
HUTCHINSON     CLEAR     47  46  99 CALM      30.44R
$$
MNZ037-044-045-052-053-291100-
   East Central Minnesota

CITY           SKY/WX    TMP DP  RH WIND       PRES   REMARKS
PRINCETON      CLEAR     46  45  93 N3        30.44S
MORA           PTCLDY    45  45 100 CALM      30.46R
CAMBRIDGE      CLEAR     46  43  87 CALM      30.42S
MOOSE LAKE     CLOUDY    48  46  93 CALM      30.44R
HINCKLEY       CLOUDY    48  48 100 N3        30.45R
CLOQUET        CLOUDY    52  48  87 CALM      30.45S
MCGREGOR       CLOUDY    52  50  93 CALM      30.46S
$$
MNZ071>073-080-081-089-090-097-098-291100-
   Southwest Minnesota

CITY           SKY/WX    TMP DP  RH WIND       PRES   REMARKS
MONTEVIDEO     CLEAR     43  41  93 SE3       30.45S
GRANITE FALLS  CLEAR     46  44  94 N3        30.45R
CANBY          CLOUDY    41  41  98 CALM      30.45S
MARSHALL       CLOUDY    38  36  92 W3        30.44R
REDWOOD FALLS  CLEAR     49  45  86 N3        30.42R
OLIVIA         CLEAR     43  41  93 N5        30.42R
PIPESTONE      CLOUDY    45  43  93 NE3       30.42S
WINDOM         CLEAR     45  45 100 N7        30.42R
WORTHINGTON    CLEAR     42  42 100 N8        30.42R
JACKSON        CLEAR     43  41  93 CALM      30.41R
TRACY          CLEAR     44  43  99 CALM      30.43R
$$
MNZ065>067-074>077-082>085-091>093-291100-
   South Central Minnesota

CITY           SKY/WX    TMP DP  RH WIND       PRES   REMARKS
MANKATO        CLEAR     47  46  97 N7        30.42R
NEW ULM        CLEAR     48  46  93 NE6       30.42R
ST JAMES       CLEAR     45  45 100 NW3       30.42R
FAIRMONT       CLEAR     45  45 100 N6        30.41
GLENCOE        CLEAR     48  48 100 N5        30.42S
FARIBAULT      CLEAR     46  46 100 N3        30.41R
OWATONNA       CLEAR     45  43  93 N5        30.40R
WASECA         CLEAR     45  45 100 N5        30.41R
ALBERT LEA     CLOUDY    50  48  93 N3        30.39R
$$
MNZ078>079-086>088-094>096-291100-
   Southeast Minnesota

CITY           SKY/WX    TMP DP  RH WIND       PRES   REMARKS
ROCHESTER      PTCLDY    50  49  96 N8        30.38R
RED WING       CLEAR     46  46 100 CALM      30.39R
DODGE CENTER   CLOUDY    46  46 100 N5        30.39R
WINONA         CLEAR     52  50  93 CALM      30.38R
AUSTIN         CLOUDY    52  48  87 NE8       30.37S
PRESTON        CLEAR     48  47  94 N6        30.36S
$$
ABBREVIATIONS USED IN REMARKS
   TC - TEMPERATURES IN CELSIUS
  WCI - WIND CHILL INDEX
   HX - HEAT INDEX
  VSB - VISIBILITY
$$



USA.gov is the U.S. government's official web portal to all federal, state and local government web resources and services.